SCP
0 0 0 0 0 0 0 0 0 0 0 0 0 0 0 0 0 0 0 0 0 0 0 0 0 0 0 0 0 0 0 0 0 0 0 0 0 0 0 0 0 0 0 0
0 0 0 0 0 0 0 0 0 0 0 0 0 0 0 0 0 0 0 0 0 0 0 0 0 0 0 0 0 0 0 0 0 0 0 0 0 0 0 0 0 0 0 0
0 0 0 0 0 0 0 0 0 0 0 0 0 0 0 0 -0 0 0 0 0 0 0 0 0 0 0 0 0 0 0 0 0 0 0 0 0 0 0 0 0 0 0 0
0 0 0 0 0 0 0 0 0 0 0 0 0 -0 0 0 0 0 0 0 0 0 0 0 0 0 0 0 0 0 0 0 0 0 0 0 0 0 0 0 0 0 0 0
0 0 0 0 0 0 0 0 0 0 0 0 0 0 -0 0 0 0 0 0 0 0 0 0 0 0 0 0 0 0 0 0 0 0 0 0 0 0 0 0 0 0 0 0
0 0 0 0 0 0 0 0 0 0 0 0 0 0 -0 -0 0 0 0 0 0 0 0 0 0 0 0 0 0 0 0 0 0 0 0 0 0 0 0 0 0 0 0 0
0 0 0 0 0 0 0 0 0 0 0 0 0 0 0 0 0 0 0 0 0 0 0 0 0 0 0 0 0 0 0 0 0 0 0 0 0 0 0 0 0 0 0 0
0 0 0 0 0 0 0 0 0 0 0 0 0 0 0 0 0 0 0 0 0 0 0 0 0 0 0 0 0 0 0 0 0 0 0 0 0 0 0 0 0 0 0 0
0 0 0 0 0 0 0 0 0 0 0 0 0 0 0 0 0 0 0 0 0 0 0 0 0 0 0 0 0 0 0 0 0 0 0 0 0 0 0 0 0 0 0 0
0 0 0 0 0 0 0 0 0 0 0 0 0 0 0 0 0 0 0 0 0 0 0 0 0 0 0 0 0 0 0 0 0 0 0 0 0 0 0 0 0 0 0 0
0 0 0 0 0 0 0 0 0 0 0 0 0 0 0 0 0 0 0 0 0 0 0 0 0 0 0 0 0 0 0 0 0 0 0 0 0 0 0 0 0 0 0 0
0 0 0 0 0 0 0 0 0 0 0 0 0 0 0 0 0 0 0 0 0 0 0 0 0 -0 -0 -0 -0 -0 -0 -0 0 0 -0 -0 -0 0 0 0 0 0 0 0
0 0 0 0 0 0 0 0 0 0 0 0 0 0 0 0 0 0 0 -0 -0 -0 -0 -0 -0 -0 -0 -0 -0 -0 -0 0 0 0 0 0 0 0 0 0 0 0 0 0
0 0 0 0 0 0 0 0 0 0 0 0 0 0 0 0 0 -0 -0 0 0 0 0 -0 -0 -0 -0 -0 0 0 0 0 0 0 0 0 0 0 0 0 0 0 0 0
0 0 0 0 0 0 0 0 0 0 0 0 0 0 0 0 0 0 0 0 0 0 0 0 0 0 0 0 0 0 0 0 0 0 0 0 0 0 0 0 0 0 -0 -0
0 0 0 0 0 0 0 0 0 0 0 0 0 0 0 -0 -0 -0 0 0 0 0 0 0 0 0 0 0 0 0 0 0 0 0 0 -0 0 -0 -0 -0 0 -0 0 0
0 0 0 0 0 0 0 0 0 0 0 0 0 0 0 0 -0 -0 -0 0 0 0 0 0 0 0 0 0 0 0 0 -0 -0 -0 0 0 -0 -0 0 0 0 0 0 0
0 0 0 0 0 0 0 0 0 0 0 0 0 0 0 0 -0 -0 -0 0 0 0 0 0 0 0 0 0 0 0 -0 0 -0 -0 -0 -0 -0 -0 -0 0 0 0 0 0
0 0 0 0 0 0 0 0 0 -0 0 0 0 0 0 0 0 0 0 0 0 0 0 0 0 0 0 0 0 0 0 0 0 0 -0 -0 -0 -0 -0 0 0 0 0 0
0 0 0 0 0 0 0 0 0 0 0 0 0 0 0 0 0 0 -0 -0 0 0 0 0 0 0 0 0 0 0 0 0 0 0 0 0 0 -0 -0 -0 0 0 0 0
0 0 0 0 0 0 0 0 0 0 0 0 0 0 -0 0 0 0 0 0 0 0 0 0 0 0 0 0 0 0 0 0 0 0 0 0 0 0 0 0 0 0 0 0
0 0 0 0 0 0 0 0 0 0 0 0 0 0 0 0 0 0 0 0 0 0 0 0 0 0 0 0 0 0 0 0 0 0 0 0 0 0 0 0 0 0 0 0
-0 0 -0 0 0 0 0 0 0 0 0 0 0 0 0 0 0 0 0 0 0 0 0 0 0 0 0 0 0 0 0 0 0 0 0 0 0 0 0 0 0 0 0 0
-0 0 0 0 0 0 0 0 0 0 0 0 0 0 0 0 0 0 0 0 0 0 0 0 0 0 0 0 0 0 0 0 0 0 0 0 0 0 0 0 0 0 0 0
0 0 0 0 0 0 0 0 0 0 0 0 0 0 0 0 0 0 0 0 0 0 0 0 0 0 0 0 0 0 0 0 0 0 0 0 0 0 0 0 0 0 0 0
0 0 0 0 0 0 0 0 0 0 0 0 0 0 0 0 0 0 0 0 0 0 0 0 0 0 0 0 0 0 0 0 0 0 0 0 0 0 0 0 0 0 0 0
Wind_Speed_500mb
7 6 13 21 2 5 5 8 4 4 6 3 6 10 23 12 21 37 46 44 43 45 45 40 39 42 45 52 54 54 57 58 58 63 68 71 75 73 72 70 68 68 67 65
5 9 7 10 3 4 6 7 2 9 3 2 7 16 21 15 17 32 37 38 42 50 57 56 48 46 50 49 49 50 52 61 61 63 65 68 71 72 72 72 71 67 64 63
7 2 6 12 10 9 4 8 4 5 9 6 11 13 10 8 5 18 31 39 45 45 46 50 50 40 38 48 47 48 45 44 49 59 66 69 72 74 73 72 70 65 61 59
4 5 4 7 6 10 7 9 9 4 5 7 5 11 10 10 15 9 31 35 33 29 30 36 35 26 26 23 38 43 39 42 41 43 52 62 71 75 72 73 71 68 66 63
8 8 8 5 8 9 9 10 9 4 5 7 10 4 13 4 9 13 31 47 41 37 30 30 32 32 27 21 18 21 31 38 38 42 44 48 56 63 66 74 77 77 77 76
6 1 7 11 4 11 12 11 11 8 6 3 11 12 8 5 6 9 32 49 55 51 44 41 35 28 26 24 21 19 17 19 26 33 38 45 52 54 60 64 70 72 75 76
6 2 3 3 9 6 4 11 4 3 1 9 6 3 14 5 10 10 14 39 59 64 65 61 57 53 43 33 28 23 19 20 22 25 28 32 37 44 51 56 62 67 72 74
9 7 11 7 7 12 13 12 8 11 7 5 3 9 2 9 33 33 41 49 61 63 62 61 60 61 59 47 38 30 24 23 23 24 23 25 29 33 39 45 51 57 64 70
7 6 4 3 5 3 8 7 9 10 6 6 6 10 13 9 13 33 46 62 60 57 59 60 56 56 56 52 49 41 31 30 30 29 26 23 23 24 25 27 32 37 42 49
4 4 5 4 7 8 3 8 6 4 4 7 6 6 10 3 10 15 37 53 58 56 58 55 50 51 49 43 39 34 32 32 34 30 28 28 31 32 34 35 36 37 39 41
4 6 4 5 2 6 2 1 7 5 5 7 2 8 9 15 8 15 27 44 49 53 49 52 52 40 42 44 42 39 38 43 46 43 40 37 35 33 33 35 40 45 47 50
2 6 3 4 4 3 5 5 6 5 7 4 1 10 13 12 8 14 23 38 45 47 46 50 49 50 46 44 47 51 50 49 50 52 51 48 45 45 43 41 43 45 48 50
7 1 5 9 8 8 7 2 4 5 4 8 4 8 7 2 9 32 47 49 52 53 53 51 53 55 53 49 48 47 45 45 46 45 45 44 44 46 47 49 50 51 53 55
4 5 7 8 4 2 7 6 5 7 3 3 8 11 13 13 18 41 43 48 55 55 56 55 52 52 50 48 46 44 44 44 45 46 46 48 50 53 57 58 59 59 62 66
7 8 6 7 5 4 3 7 9 10 5 9 4 7 13 9 12 28 33 48 52 60 59 52 50 53 47 43 41 41 43 45 47 48 49 51 53 53 55 58 62 65 67 67
8 3 5 10 14 10 8 16 8 8 5 13 8 22 7 13 9 24 37 38 50 56 53 47 41 42 46 49 47 46 46 47 49 50 51 51 54 57 59 58 59 61 63 65
6 6 6 6 9 11 12 10 11 5 4 7 10 13 9 13 12 27 36 43 38 36 43 36 55 53 46 45 52 60 64 65 62 59 57 57 56 57 57 56 55 56 58 60
5 7 6 4 7 4 8 3 8 8 13 15 16 23 25 26 35 34 24 12 48 45 44 50 55 55 51 52 59 64 64 65 66 67 67 67 66 64 60 58 56 50 49 50
7 7 6 7 5 13 10 3 11 10 18 13 16 15 34 32 42 30 13 37 53 43 50 58 57 57 58 59 67 67 63 60 59 60 62 63 62 62 60 56 52 52 49 45
7 11 8 6 8 11 11 6 4 9 10 9 7 6 24 37 18 25 38 55 55 48 53 51 55 54 55 58 60 58 58 58 57 57 56 56 56 56 53 51 46 42 42 40
6 2 8 5 5 15 17 17 5 11 10 9 24 43 38 15 25 58 58 57 52 45 44 43 47 55 59 59 57 56 56 55 56 54 53 51 49 47 45 42 42 39 35 32
11 12 7 7 6 15 20 9 11 9 7 34 52 52 50 50 62 62 59 56 47 47 44 44 48 48 48 55 57 59 57 56 54 51 48 44 42 39 37 34 34 33 32 32
4 13 8 18 14 17 21 16 20 36 38 58 40 42 51 55 59 59 60 55 52 43 39 39 41 48 49 49 49 49 48 46 43 40 37 35 35 34 34 34 32 31 29 30
8 14 7 5 16 42 50 37 42 61 35 43 47 49 50 50 51 51 50 47 45 44 41 41 42 43 43 44 42 40 38 36 35 34 33 33 32 31 31 31 31 30 29 28
14 15 9 12 32 42 54 38 21 31 41 53 52 44 39 41 44 45 44 42 41 41 40 40 38 36 33 30 28 28 28 29 30 29 28 27 29 30 30 29 29 29 28 28
25 12 10 13 31 27 38 32 34 46 54 42 40 48 45 43 42 41 40 39 38 36 33 29 23 19 17 17 19 21 21 21 22 21 22 24 28 31 31 30 26 29 30 31
Wind_Direction_500mb
149 134 189 183 235 24 148 144 186 258 24 7 234 259 276 298 290 282 282 287 289 291 293 286 283 280 278 268 266 269 269 266 262 260 260 259 260 262 264 266 268 269 267 267
82 218 209 130 182 101 62 106 195 279 4 69 346 279 277 275 255 269 281 285 286 290 290 294 293 282 272 272 268 268 269 264 264 264 266 266 269 271 271 273 274 274 275 275
154 171 180 151 157 159 166 150 193 234 346 65 343 298 306 315 283 285 272 278 285 303 314 317 306 301 289 261 267 272 276 276 273 269 267 267 267 270 272 275 277 283 284 284
230 315 104 113 179 126 211 186 162 173 86 239 18 286 310 312 317 297 296 342 355 351 338 339 344 328 317 286 258 262 268 275 279 276 271 269 271 272 277 280 281 282 283 283
224 158 144 143 190 158 202 155 170 153 96 33 347 325 273 299 302 291 32 20 20 20 20 19 19 16 9 348 328 293 271 265 270 271 273 273 272 273 276 276 278 278 279 279
148 118 134 193 151 151 145 85 51 54 91 327 209 181 274 225 356 5 22 42 41 38 36 35 28 18 8 358 348 342 327 298 284 280 279 277 277 277 278 280 282 283 283 281
172 246 349 152 85 63 98 104 34 13 360 228 334 141 244 357 9 48 60 40 41 39 38 34 32 27 19 11 359 350 337 324 312 302 298 294 290 288 287 287 287 287 287 286
134 320 183 175 176 169 184 168 153 197 192 248 355 226 189 24 94 72 51 38 33 30 28 29 27 26 24 22 16 9 7 11 12 6 354 335 318 308 300 296 292 289 287 287
128 270 351 46 29 99 187 195 152 102 20 62 219 284 49 49 35 30 25 23 22 21 22 20 18 21 20 22 24 25 40 41 34 29 28 20 7 355 346 334 325 315 307 299
204 116 6 351 73 26 112 151 90 15 152 232 251 251 185 98 46 7 14 12 11 11 15 14 12 9 8 9 10 9 2 1 360 359 354 348 343 339 336 333 332 328 324 317
183 94 322 52 57 164 55 155 56 120 151 185 215 256 214 152 121 28 0 9 9 8 10 8 6 4 358 352 351 348 340 337 336 338 332 326 320 317 314 318 324 325 324 321
52 84 128 111 62 55 105 85 145 150 216 242 195 263 150 153 126 347 356 8 7 3 358 359 358 353 349 351 346 344 341 337 333 329 328 327 316 309 304 303 311 318 319 320
156 116 71 2 15 13 95 109 151 178 191 183 185 265 206 260 359 8 357 359 354 354 355 352 352 352 350 348 345 340 336 338 340 337 334 332 329 323 315 312 313 316 316 316
112 123 147 180 184 122 145 177 205 178 179 144 234 300 274 323 4 342 344 345 343 344 344 344 341 342 342 343 346 344 341 340 339 338 337 335 331 326 321 319 316 313 312 311
81 103 74 28 329 327 212 199 200 203 196 185 11 262 281 320 293 313 328 335 335 333 335 335 333 333 335 335 338 338 339 338 337 335 334 332 331 327 322 316 311 308 307 305
7 152 100 7 357 1 295 282 266 231 217 267 298 276 252 288 302 313 324 324 321 323 325 326 334 336 332 331 333 335 333 329 327 326 326 325 324 322 320 316 311 308 306 303
50 113 62 274 346 347 332 244 229 75 167 196 255 274 334 307 307 319 312 312 326 345 345 337 328 327 325 326 328 328 326 325 324 323 321 319 319 318 315 313 311 310 307 305
117 81 61 185 12 3 241 219 170 199 244 248 274 271 292 315 328 322 324 23 349 335 331 328 322 319 314 315 320 319 317 318 319 320 321 322 323 321 321 321 321 317 315 313
5 105 79 120 181 298 339 114 137 182 268 227 233 301 329 347 335 317 315 325 324 315 312 313 311 306 307 309 314 312 312 313 314 316 319 320 321 321 323 324 325 326 326 327
79 74 107 71 130 222 236 239 5 90 303 325 136 14 320 324 324 302 317 312 310 301 300 296 290 290 295 301 306 308 311 313 316 319 321 321 322 323 325 327 330 333 334 336
61 114 208 198 234 290 246 270 264 83 246 148 340 328 314 284 281 303 320 317 316 311 302 290 284 292 297 302 306 310 312 314 316 317 317 319 321 323 325 329 331 335 338 340
162 149 201 194 217 275 198 86 170 220 289 302 314 318 313 311 311 311 312 314 311 307 298 291 291 294 300 305 308 309 311 313 314 316 319 320 323 326 330 333 335 332 333 333
297 192 184 180 210 228 191 232 241 289 299 307 310 310 306 306 307 309 308 306 304 302 298 298 299 302 303 303 306 309 313 315 318 320 323 326 331 335 335 337 340 341 343 344
251 200 224 115 241 247 264 276 284 298 303 306 306 305 306 304 305 304 305 305 305 304 303 303 306 307 309 312 315 319 323 327 329 329 329 329 331 333 336 339 340 342 344 348
210 162 209 261 270 276 279 283 295 299 302 305 303 305 305 304 303 301 302 303 304 306 308 309 310 311 314 320 327 331 331 330 331 334 338 339 338 336 335 334 335 339 345 351
201 218 202 240 252 252 272 286 295 303 306 303 306 306 307 304 303 302 303 304 305 306 309 314 322 330 336 340 334 331 333 334 335 336 335 332 328 325 326 326 325 324 325 327
Wind_Speed_850mb
7 6 13 21 2 5 5 8 4 4 6 3 6 10 23 12 21 37 46 44 43 45 45 40 39 42 45 52 54 54 57 58 58 63 68 71 75 73 72 70 68 68 67 65
5 9 7 10 3 4 6 7 2 9 3 2 7 16 21 15 17 32 37 38 42 50 57 56 48 46 50 49 49 50 52 61 61 63 65 68 71 72 72 72 71 67 64 63
7 2 6 12 10 9 4 8 4 5 9 6 11 13 10 8 5 18 31 39 45 45 46 50 50 40 38 48 47 48 45 44 49 59 66 69 72 74 73 72 70 65 61 59
4 5 4 7 6 10 7 9 9 4 5 7 5 11 10 10 15 9 31 35 33 29 30 36 35 26 26 23 38 43 39 42 41 43 52 62 71 75 72 73 71 68 66 63
8 8 8 5 8 9 9 10 9 4 5 7 10 4 13 4 9 13 31 47 41 37 30 30 32 32 27 21 18 21 31 38 38 42 44 48 56 63 66 74 77 77 77 76
6 1 7 11 4 11 12 11 11 8 6 3 11 12 8 5 6 9 32 49 55 51 44 41 35 28 26 24 21 19 17 19 26 33 38 45 52 54 60 64 70 72 75 76
6 2 3 3 9 6 4 11 4 3 1 9 6 3 14 5 10 10 14 39 59 64 65 61 57 53 43 33 28 23 19 20 22 25 28 32 37 44 51 56 62 67 72 74
9 7 11 7 7 12 13 12 8 11 7 5 3 9 2 9 33 33 41 49 61 63 62 61 60 61 59 47 38 30 24 23 23 24 23 25 29 33 39 45 51 57 64 70
7 6 4 3 5 3 8 7 9 10 6 6 6 10 13 9 13 33 46 62 60 57 59 60 56 56 56 52 49 41 31 30 30 29 26 23 23 24 25 27 32 37 42 49
4 4 5 4 7 8 3 8 6 4 4 7 6 6 10 3 10 15 37 53 58 56 58 55 50 51 49 43 39 34 32 32 34 30 28 28 31 32 34 35 36 37 39 41
4 6 4 5 2 6 2 1 7 5 5 7 2 8 9 15 8 15 27 44 49 53 49 52 52 40 42 44 42 39 38 43 46 43 40 37 35 33 33 35 40 45 47 50
2 6 3 4 4 3 5 5 6 5 7 4 1 10 13 12 8 14 23 38 45 47 46 50 49 50 46 44 47 51 50 49 50 52 51 48 45 45 43 41 43 45 48 50
7 1 5 9 8 8 7 2 4 5 4 8 4 8 7 2 9 32 47 49 52 53 53 51 53 55 53 49 48 47 45 45 46 45 45 44 44 46 47 49 50 51 53 55
4 5 7 8 4 2 7 6 5 7 3 3 8 11 13 13 18 41 43 48 55 55 56 55 52 52 50 48 46 44 44 44 45 46 46 48 50 53 57 58 59 59 62 66
7 8 6 7 5 4 3 7 9 10 5 9 4 7 13 9 12 28 33 48 52 60 59 52 50 53 47 43 41 41 43 45 47 48 49 51 53 53 55 58 62 65 67 67
8 3 5 10 14 10 8 16 8 8 5 13 8 22 7 13 9 24 37 38 50 56 53 47 41 42 46 49 47 46 46 47 49 50 51 51 54 57 59 58 59 61 63 65
6 6 6 6 9 11 12 10 11 5 4 7 10 13 9 13 12 27 36 43 38 36 43 36 55 53 46 45 52 60 64 65 62 59 57 57 56 57 57 56 55 56 58 60
5 7 6 4 7 4 8 3 8 8 13 15 16 23 25 26 35 34 24 12 48 45 44 50 55 55 51 52 59 64 64 65 66 67 67 67 66 64 60 58 56 50 49 50
7 7 6 7 5 13 10 3 11 10 18 13 16 15 34 32 42 30 13 37 53 43 50 58 57 57 58 59 67 67 63 60 59 60 62 63 62 62 60 56 52 52 49 45
7 11 8 6 8 11 11 6 4 9 10 9 7 6 24 37 18 25 38 55 55 48 53 51 55 54 55 58 60 58 58 58 57 57 56 56 56 56 53 51 46 42 42 40
6 2 8 5 5 15 17 17 5 11 10 9 24 43 38 15 25 58 58 57 52 45 44 43 47 55 59 59 57 56 56 55 56 54 53 51 49 47 45 42 42 39 35 32
11 12 7 7 6 15 20 9 11 9 7 34 52 52 50 50 62 62 59 56 47 47 44 44 48 48 48 55 57 59 57 56 54 51 48 44 42 39 37 34 34 33 32 32
4 13 8 18 14 17 21 16 20 36 38 58 40 42 51 55 59 59 60 55 52 43 39 39 41 48 49 49 49 49 48 46 43 40 37 35 35 34 34 34 32 31 29 30
8 14 7 5 16 42 50 37 42 61 35 43 47 49 50 50 51 51 50 47 45 44 41 41 42 43 43 44 42 40 38 36 35 34 33 33 32 31 31 31 31 30 29 28
14 15 9 12 32 42 54 38 21 31 41 53 52 44 39 41 44 45 44 42 41 41 40 40 38 36 33 30 28 28 28 29 30 29 28 27 29 30 30 29 29 29 28 28
25 12 10 13 31 27 38 32 34 46 54 42 40 48 45 43 42 41 40 39 38 36 33 29 23 19 17 17 19 21 21 21 22 21 22 24 28 31 31 30 26 29 30 31
Wind_Direction_850mb
149 134 189 183 235 24 148 144 186 258 24 7 234 259 276 298 290 282 282 287 289 291 293 286 283 280 278 268 266 269 269 266 262 260 260 259 260 262 264 266 268 269 267 267
82 218 209 130 182 101 62 106 195 279 4 69 346 279 277 275 255 269 281 285 286 290 290 294 293 282 272 272 268 268 269 264 264 264 266 266 269 271 271 273 274 274 275 275
154 171 180 151 157 159 166 150 193 234 346 65 343 298 306 315 283 285 272 278 285 303 314 317 306 301 289 261 267 272 276 276 273 269 267 267 267 270 272 275 277 283 284 284
230 315 104 113 179 126 211 186 162 173 86 239 18 286 310 312 317 297 296 342 355 351 338 339 344 328 317 286 258 262 268 275 279 276 271 269 271 272 277 280 281 282 283 283
224 158 144 143 190 158 202 155 170 153 96 33 347 325 273 299 302 291 32 20 20 20 20 19 19 16 9 348 328 293 271 265 270 271 273 273 272 273 276 276 278 278 279 279
148 118 134 193 151 151 145 85 51 54 91 327 209 181 274 225 356 5 22 42 41 38 36 35 28 18 8 358 348 342 327 298 284 280 279 277 277 277 278 280 282 283 283 281
172 246 349 152 85 63 98 104 34 13 360 228 334 141 244 357 9 48 60 40 41 39 38 34 32 27 19 11 359 350 337 324 312 302 298 294 290 288 287 287 287 287 287 286
134 320 183 175 176 169 184 168 153 197 192 248 355 226 189 24 94 72 51 38 33 30 28 29 27 26 24 22 16 9 7 11 12 6 354 335 318 308 300 296 292 289 287 287
128 270 351 46 29 99 187 195 152 102 20 62 219 284 49 49 35 30 25 23 22 21 22 20 18 21 20 22 24 25 40 41 34 29 28 20 7 355 346 334 325 315 307 299
204 116 6 351 73 26 112 151 90 15 152 232 251 251 185 98 46 7 14 12 11 11 15 14 12 9 8 9 10 9 2 1 360 359 354 348 343 339 336 333 332 328 324 317
183 94 322 52 57 164 55 155 56 120 151 185 215 256 214 152 121 28 0 9 9 8 10 8 6 4 358 352 351 348 340 337 336 338 332 326 320 317 314 318 324 325 324 321
52 84 128 111 62 55 105 85 145 150 216 242 195 263 150 153 126 347 356 8 7 3 358 359 358 353 349 351 346 344 341 337 333 329 328 327 316 309 304 303 311 318 319 320
156 116 71 2 15 13 95 109 151 178 191 183 185 265 206 260 359 8 357 359 354 354 355 352 352 352 350 348 345 340 336 338 340 337 334 332 329 323 315 312 313 316 316 316
112 123 147 180 184 122 145 177 205 178 179 144 234 300 274 323 4 342 344 345 343 344 344 344 341 342 342 343 346 344 341 340 339 338 337 335 331 326 321 319 316 313 312 311
81 103 74 28 329 327 212 199 200 203 196 185 11 262 281 320 293 313 328 335 335 333 335 335 333 333 335 335 338 338 339 338 337 335 334 332 331 327 322 316 311 308 307 305
7 152 100 7 357 1 295 282 266 231 217 267 298 276 252 288 302 313 324 324 321 323 325 326 334 336 332 331 333 335 333 329 327 326 326 325 324 322 320 316 311 308 306 303
50 113 62 274 346 347 332 244 229 75 167 196 255 274 334 307 307 319 312 312 326 345 345 337 328 327 325 326 328 328 326 325 324 323 321 319 319 318 315 313 311 310 307 305
117 81 61 185 12 3 241 219 170 199 244 248 274 271 292 315 328 322 324 23 349 335 331 328 322 319 314 315 320 319 317 318 319 320 321 322 323 321 321 321 321 317 315 313
5 105 79 120 181 298 339 114 137 182 268 227 233 301 329 347 335 317 315 325 324 315 312 313 311 306 307 309 314 312 312 313 314 316 319 320 321 321 323 324 325 326 326 327
79 74 107 71 130 222 236 239 5 90 303 325 136 14 320 324 324 302 317 312 310 301 300 296 290 290 295 301 306 308 311 313 316 319 321 321 322 323 325 327 330 333 334 336
61 114 208 198 234 290 246 270 264 83 246 148 340 328 314 284 281 303 320 317 316 311 302 290 284 292 297 302 306 310 312 314 316 317 317 319 321 323 325 329 331 335 338 340
162 149 201 194 217 275 198 86 170 220 289 302 314 318 313 311 311 311 312 314 311 307 298 291 291 294 300 305 308 309 311 313 314 316 319 320 323 326 330 333 335 332 333 333
297 192 184 180 210 228 191 232 241 289 299 307 310 310 306 306 307 309 308 306 304 302 298 298 299 302 303 303 306 309 313 315 318 320 323 326 331 335 335 337 340 341 343 344
251 200 224 115 241 247 264 276 284 298 303 306 306 305 306 304 305 304 305 305 305 304 303 303 306 307 309 312 315 319 323 327 329 329 329 329 331 333 336 339 340 342 344 348
210 162 209 261 270 276 279 283 295 299 302 305 303 305 305 304 303 301 302 303 304 306 308 309 310 311 314 320 327 331 331 330 331 334 338 339 338 336 335 334 335 339 345 351
201 218 202 240 252 252 272 286 295 303 306 303 306 306 307 304 303 302 303 304 305 306 309 314 322 330 336 340 334 331 333 334 335 336 335 332 328 325 326 326 325 324 325 327